Location: ????????
(60.4576°N, 46.6127°E)
Time: 19:32:36
(UTC+00:00)

Daily predictions for brighter satellites

Satellite Brightness Start Highest point End
(mag) Time Altitude Azimuth Time Altitude Azimuth Time Altitude Azimuth
Cosmos 2322 Rocket 3.8 19:48:22 10° W 19:53:39 40° NNW 19:58:58 10° NE
NOSS 3-3 (A) 4.1 19:50:07 10° SW 19:56:13 67° SE 20:03:15 10° ENE
NOSS 3-3 (C) 4.1 19:50:14 10° SW 19:56:21 67° SE 20:03:22 10° ENE
Cosmos 2058 3.1 19:53:02 10° SSW 19:57:11 73° WNW 20:01:21 10° NNE
Okean 3 Rocket 4.1 19:53:24 10° SSE 19:57:40 47° E 20:01:55 10° NNE
Cosmos 2228 Rocket 4.2 19:56:35 10° N 20:00:57 40° ENE 20:05:17 10° SE
Cosmos 2369 Rocket 2.3 19:56:51 10° NW 20:02:30 81° NE 20:08:07 10° SE
Cosmos 2344 4.1 19:58:10 10° SSW 20:05:03 42° SE 20:12:51 10° ENE
ATLAS 2AS CENTAUR R/B 3.8 20:01:42 10° WNW 20:08:22 34° WSW 20:14:35 10° S
Cosmos 1980 3.8 20:02:49 10° SSW 20:08:25 67° ESE 20:14:03 10° NE
COSMOS 2455 3.0 20:02:27 10° NW 20:08:28 66° SW 20:14:26 10° SSE
Cosmos 1825 2.2 20:05:49 10° S 20:09:36 78° E 20:13:25 10° NNE
Cosmos 1340 3.8 20:06:29 10° SSE 20:09:49 31° E 20:13:11 10° NNE
Cosmos 304 Rocket 3.9 20:07:31 10° NNW 20:12:23 88° NE 20:17:14 10° SSE
Cosmos 2154 Rocket 4.2 20:06:53 10° SSW 20:13:05 75° WNW 20:19:22 10° NNE
Cosmos 1656 Rocket 4.1 20:08:02 10° NW 20:13:28 63° NE 20:18:50 10° SE
Aureole 2 Rocket 3.5 20:11:42 10° NW 20:14:03 24° WSW 20:16:28 10° SSW
Thor Agena Rocket 3.6 20:09:31 10° NNE 20:14:42 83° ESE 20:19:48 10° SSW
COSMOS 2428 3.1 20:10:04 10° SW 20:15:45 72° NW 20:21:29 10° NE
USA 215 3.5 20:10:01 10° E 20:16:24 50° SSE 20:22:44 10° SW
Cosmos 1076 Rocket 4.1 20:12:28 10° SSW 20:16:42 57° WNW 20:20:57 10° N
Cosmos 2341 Rocket 4.1 20:11:15 10° S 20:17:27 79° E 20:23:42 10° NNE
Cosmos 1933 3.5 20:15:37 10° NNW 20:19:38 71° W 20:23:39 10° S
YAOGAN 11 4.3 20:18:37 10° SSE 20:23:00 74° ENE 20:27:29 10° NNW
Cosmos 2151 3.0 20:19:51 10° SSW 20:24:09 89° W 20:28:27 10° NNE
Helios 1A 3.0 20:21:18 10° SSE 20:25:27 88° ENE 20:29:39 10° NNW
Cosmos 2237 Rocket 2.2 20:20:46 10° SSW 20:26:28 78° SE 20:32:13 10° NE
Cosmos 2219 Rocket 2.8 20:22:08 10° WSW 20:27:41 60° NW 20:33:18 10° NE
Cosmos 1818 4.2 20:24:39 10° W 20:30:05 63° NNW 20:35:32 10° ENE
Cosmos 2360 Rocket 3.8 20:25:35 10° W 20:30:53 39° NNW 20:36:15 10° NE
Cosmos 2263 4.3 20:25:12 10° NW 20:30:58 90° SW 20:36:45 10° SE
Genesis I 3.6 20:27:54 10° SSW 20:31:37 44° SE 20:35:21 10° ENE
GEOS 3 Rocket 3.9 20:27:21 10° ENE 20:32:44 79° NNW 20:38:09 10° WSW
CZ-4C R/B 2.9 20:26:12 10° WNW 20:32:47 70° SW 20:40:38 10° SE
SL-8 Rocket 4.1 20:27:02 10° S 20:33:12 79° E 20:39:23 10° NNE
Cosmos 1151 Rocket 3.5 20:30:07 10° NNW 20:34:22 53° W 20:38:34 10° S
Cosmos 1812 4.0 20:32:47 10° N 20:36:25 36° ENE 20:40:01 10° SE
Cosmos 158 Rocket 3.9 20:31:52 10° SW 20:36:46 85° WNW 20:41:46 10° NNE
SL-4 R/B 1.0 20:35:29 11° S 20:37:24 44° WSW 20:39:25 10° NNW
Cosmos 1782 2.8 20:33:39 10° NNW 20:37:39 86° ENE 20:41:37 10° SSE
Cosmos 1727 Rocket 4.1 20:31:47 10° NNW 20:38:02 85° W 20:44:19 10° S
Cosmos 332 Rocket 4.2 20:34:33 10° NW 20:39:12 49° WSW 20:43:49 10° S
Cosmos 2112 Rocket 4.2 20:34:24 10° SSW 20:39:48 86° WNW 20:45:13 10° NNE
Cosmos 2333 Rocket 3.1 20:36:08 10° WSW 20:41:45 53° NW 20:47:25 10° NE
Cosmos 1408 Rocket 3.8 20:38:14 10° S 20:42:34 64° E 20:46:59 10° NNE
SL-16 R/B 3.8 20:37:15 10° ESE 20:42:58 39° NE 20:48:43 10° NNW
Helios 1B rocket 4.1 20:39:56 10° NE 20:43:16 23° E 20:46:36 10° SE
NOSS 2-1 (C) 4.1 20:40:16 10° WNW 20:44:17 68° NNE 20:49:40 10° E
ALOS 2 3.5 20:41:59 10° SSW 20:46:08 39° W 20:50:17 10° NNW
Nimbus 7 Rocket 4.5 20:41:15 10° NNE 20:47:16 84° ESE 20:53:11 10° SSW
Cosmos 1346 Rocket 3.3 20:45:10 10° S 20:48:56 47° E 20:52:45 10° NNE
NOSS 2-1 (D) 4.1 20:44:56 10° WNW 20:49:00 70° NNE 20:54:28 10° E
NOSS 0 Rocket 4.1 20:43:25 10° SW 20:49:36 80° NW 20:55:51 10° NE
EO 1 Del DPAF 3.9 20:46:22 10° N 20:50:03 51° WNW 20:53:42 10° SW
GP-B 3.6 20:46:22 10° N 20:50:45 57° W 20:55:07 10° SSW
Cosmos 292 Rocket 4.5 20:46:31 10° NNW 20:51:17 56° NE 20:56:01 10° SE
Cosmos 1500 Rocket 4.2 20:47:36 10° SSE 20:51:48 45° E 20:55:59 10° NNE
SL-16 R/B 4.5 20:47:02 10° WNW 20:52:03 30° N 20:57:03 10° NE
Cosmos 2278 Rocket 4.4 20:51:17 10° WNW 20:53:01 11° W 20:54:46 10° WSW
Cosmos 1943 Rocket 2.8 20:52:52 10° NW 20:58:16 44° WSW 21:03:35 10° S
Cosmos 1606 4.2 20:55:01 10° NNW 20:58:20 27° W 21:01:39 10° SSW
Cosmos 1331 Rocket 4.1 20:53:47 10° NW 20:59:08 77° WSW 21:04:26 10° SSE
ATLAS 5 CENTAUR R/B 2.4 20:54:50 10° W 20:59:28 66° N 21:04:56 10° ENE
RESURS DK-1 2.6 20:56:24 10° NW 21:00:28 56° SW 21:04:31 10° SSE
Cosmos 1633 2.8 20:58:55 10° S 21:02:30 60° E 21:06:05 10° NNE
Cosmos 44 3.4 21:03:27 10° SSW 21:07:39 48° SE 21:12:02 10° ENE
Cosmos 1680 Rocket 4.2 21:02:46 10° SW 21:08:02 58° NW 21:13:19 10° NNE
Landsat 4 4.1 21:05:58 10° NNE 21:09:42 54° ESE 21:13:26 10° S
SL-16 R/B 2.3 21:05:50 10° SSW 21:11:30 71° SE 21:17:12 10° NE
Cosmos 1110 Rocket 4.3 21:11:55 10° NW 21:17:06 56° WSW 21:22:16 10° S
Cosmos 1515 Rocket 4.5 21:14:32 10° NNW 21:18:34 37° W 21:22:35 10° SSW
Cosmos 405 3.9 21:15:35 10° NNW 21:18:53 37° W 21:22:10 10° SSW
Lacrosse 5 rocket 2.5 21:16:34 10° W 21:19:42 22° SW 21:22:43 10° SSE
Cosmos 1862 4.1 21:18:14 10° SSE 21:22:00 43° E 21:25:49 10° NNE
Cosmos 389 Rocket 2.8 21:22:47 10° NNW 21:26:20 65° ENE 21:29:49 10° SSE
Cosmos 1707 Rocket 3.7 21:24:34 10° NNW 21:29:06 81° ENE 21:33:34 10° SSE
MOZ.5/SAFIR/RUBIN 5/SL-8 4.3 21:26:49 10° SE 21:31:30 62° ENE 21:36:15 10° NNW
Resurs 1-4 Rocket 3.8 21:31:46 10° NE 21:36:08 25° E 21:40:28 10° SE
Meteor 2-3 Rocket 4.0 21:31:26 10° SSW 21:37:05 68° WNW 21:42:50 10° NNE
Cosmos 1302 Rocket 4.1 21:33:10 10° NW 21:38:23 70° WSW 21:43:33 10° SSE
Cosmos 2228 Rocket 3.9 21:34:54 10° NNW 21:39:14 42° W 21:43:33 10° SSW
NOSS 2-1 (E) 4.0 21:35:18 10° WNW 21:39:38 89° NNE 21:45:39 10° ESE
EP 3 3.5 21:38:05 10° SW 21:40:03 63° SSE 21:42:12 10° ENE
Meteor 1-10 Rocket 4.4 21:36:18 10° NNW 21:41:49 61° W 21:47:17 10° S
ADEOS II 4.4 21:42:19 10° NE 21:45:15 15° E 21:48:10 10° ESE
Cosmos 1340 3.7 21:41:48 10° SW 21:45:22 40° WNW 21:48:59 10° N
Cosmos 1825 4.5 21:42:48 10° WSW 21:45:36 19° WNW 21:48:25 10° N
Cosmos 2369 Rocket 3.2 21:41:15 10° NW 21:46:06 31° WSW 21:50:56 10° S
Cosmos 1603 4.3 21:41:12 10° S 21:46:38 48° ESE 21:52:08 10° NE
CZ-4 R/B 3.9 21:43:19 10° NNE 21:48:01 81° ESE 21:52:45 10° SSW
Spot 1 4.4 21:43:26 10° SSE 21:48:26 86° WSW 21:53:13 10° NNW
Cosmos 2123 Rocket 4.1 21:42:49 10° NNW 21:49:02 75° W 21:55:13 10° S
Cosmos 1862 Rocket 3.9 21:45:21 10° NNW 21:49:47 69° ENE 21:54:15 10° SSE
Cosmos 1821 Rocket 4.0 21:46:51 10° SSW 21:52:59 86° WNW 21:59:08 10° NNE
COSMOS 2455 4.3 21:49:05 10° WNW 21:53:28 21° WSW 21:57:50 10° SSW
IRAS Rocket 4.3 21:48:01 10° SSE 21:53:30 80° WSW 21:59:04 10° NNW
SWARM A 4.3 21:50:23 10° N 21:53:46 80° W 21:57:06 10° S
Cosmos 1633 Rocket 4.0 21:51:27 10° SSE 21:55:35 43° E 21:59:47 10° NNE
Cosmos 1656 Rocket 4.2 21:51:51 10° NW 21:56:55 41° WSW 22:01:58 10° S
Cosmos 1743 Rocket 4.0 21:53:08 10° SSW 21:57:25 57° WNW 22:01:45 10° N
Sich 1 3.2 21:53:25 10° S 21:57:42 68° E 22:02:03 10° NNE
DELTA 2 DEB (DPAF) 4.2 21:53:21 10° SSE 21:57:50 86° WSW 22:02:20 10° NNW
Cosmos 44 Rocket 4.3 21:53:57 10° S 21:58:03 30° SE 22:02:14 10° ENE
USA 215 3.3 21:53:28 10° E 22:00:02 68° S 22:06:36 10° WSW
COSMOS 2428 4.5 21:55:42 10° W 22:00:54 34° NNW 22:06:06 10° NE
Cosmos 1656 4.4 21:59:19 10° NW 22:04:42 56° NE 22:10:03 10° ESE
